Tridens — PBVO — position and weather

sailwx.info

Track history (hours):
 
Tides and Currents Weather Stations Pressure Air Temp Water Temp Dewpoint Dewpoint Depression Visibility Wind Speed Wind Dir Waves Ship Positions

Oceanographic research ship Tridens (Netherlands)

Detailed information on ship capabilities available from University of Delaware's Ocean Information Center.

Last reported at 2015-May-01 01:24 UTC. Time now 2015-May-03 16:53 UTC.
Position N 52°06' E 004°16'.

Length 74 m; beam 14 m.

Type: Ship. MMSI: 244033000.

Date/timePositionNaut miles runAvg speedWind from/ knotsBaromVisibWave heightAir tempDewpointWater temp
2015-May-01 01:24N 52°06' E 004°16'7 8.9
2015-May-01 00:34N 52°02' E 004°06'1010.2
2015-Apr-30 23:33N 51°54' E 004°16'3 3.2
2015-Apr-30 22:32N 51°52' E 004°20'0 0.0
2015-Apr-30 21:29N 51°52' E 004°20'0 0.0
2015-Apr-30 20:32N 51°52' E 004°20'0 0.0
2015-Apr-30 19:32N 51°52' E 004°20'0 0.0
2015-Apr-30 18:32N 51°52' E 004°20'0 0.0
2015-Apr-30 17:29N 51°52' E 004°20'0 0.0
2015-Apr-30 16:33N 51°52' E 004°20'6 6.4
2015-Apr-30 15:33N 51°50' E 004°30'8 8.4
2015-Apr-30 14:33N 51°43' E 004°37'9 8.7
2015-Apr-30 13:33N 51°44' E 004°23'1413.6
2015-Apr-30 12:33N 51°49' E 004°03'1 0.5
2015-Apr-30 11:28N 51°49' E 004°02'0 0.2
2015-Apr-30 10:33N 51°49' E 004°03'0 0.0
2015-Apr-30 09:33N 51°49' E 004°03'0 0.0
2015-Apr-30 08:33N 51°49' E 004°03'0 0.0
2015-Apr-30 07:33N 51°49' E 004°03'0 0.0
2015-Apr-30 06:33N 51°49' E 004°03'0 0.0
2015-Apr-30 05:33N 51°49' E 004°03'0 0.0
2015-Apr-30 04:30N 51°49' E 004°03'0 0.0
2015-Apr-30 03:33N 51°49' E 004°03'0 0.0
2015-Apr-30 02:33N 51°49' E 004°03'0 0.0
2015-Apr-30 01:33N 51°49' E 004°03'0 0.0
2015-Apr-30 00:30N 51°49' E 004°03'0 0.0
2015-Apr-29 23:33N 51°49' E 004°03'0 0.0
2015-Apr-29 22:27N 51°49' E 004°03'0 0.0
2015-Apr-29 21:30N 51°49' E 004°03'0 0.0
2015-Apr-29 20:33N 51°49' E 004°03'0 0.0
2015-Apr-29 19:33N 51°49' E 004°03'0 0.0
2015-Apr-29 18:30N 51°49' E 004°03'0 0.0
2015-Apr-29 17:33N 51°49' E 004°03'0 0.0
2015-Apr-29 16:33N 51°49' E 004°03'0 0.0
2015-Apr-29 15:33N 51°49' E 004°03'0 0.0
2015-Apr-29 14:33N 51°49' E 004°03'0 0.0
2015-Apr-29 13:33N 51°49' E 004°03'0 0.0
2015-Apr-29 12:33N 51°49' E 004°03'0 0.0
2015-Apr-29 11:33N 51°49' E 004°03'0 0.0
2015-Apr-29 10:33N 51°49' E 004°03'0 0.0
2015-Apr-29 09:33N 51°49' E 004°03'0 0.0
2015-Apr-29 08:33N 51°49' E 004°03'0 0.0
2015-Apr-29 07:33N 51°49' E 004°03'0 0.0
2015-Apr-29 06:33N 51°49' E 004°03'0 0.0
2015-Apr-29 05:33N 51°49' E 004°03'0 0.0
2015-Apr-29 04:33N 51°49' E 004°03'0 0.0
2015-Apr-29 03:33N 51°49' E 004°03'0 0.0
2015-Apr-29 02:33N 51°49' E 004°03'0 0.0
2015-Apr-29 01:33N 51°49' E 004°03'0 0.0
2015-Apr-29 00:33N 51°49' E 004°03'0 0.0
2015-Apr-28 23:33N 51°49' E 004°03'0 0.0
2015-Apr-28 22:32N 51°49' E 004°03'0 0.0
2015-Apr-28 21:33N 51°49' E 004°03'0 0.0
2015-Apr-28 20:26N 51°49' E 004°03'0 0.0
2015-Apr-28 19:32N 51°49' E 004°03'0 0.0
2015-Apr-28 18:32N 51°49' E 004°03'0 0.0
2015-Apr-28 17:32N 51°49' E 004°03'0 0.0
2015-Apr-28 16:29N 51°49' E 004°03'0 0.0
2015-Apr-28 15:32N 51°49' E 004°03'0 0.0
2015-Apr-28 14:32N 51°49' E 004°03'0 0.0
2015-Apr-28 13:32N 51°49' E 004°03'0 0.2
2015-Apr-28 12:29N 51°49' E 004°02'0 0.0
2015-Apr-28 11:26N 51°49' E 004°02'0 0.0
2015-Apr-28 10:29N 51°49' E 004°02'0 0.0
2015-Apr-28 09:32N 51°49' E 004°02'0 0.0
2015-Apr-28 08:29N 51°49' E 004°02'0 0.0
2015-Apr-28 07:32N 51°49' E 004°02'0 0.0
2015-Apr-28 06:32N 51°49' E 004°02'0 0.0
2015-Apr-28 05:32N 51°49' E 004°02'0 0.0
2015-Apr-28 04:29N 51°49' E 004°02'0 0.0
2015-Apr-28 03:29N 51°49' E 004°02'0 0.0
2015-Apr-28 02:29N 51°49' E 004°02'0 0.0
2015-Apr-28 01:23N 51°49' E 004°02'0 0.0
2015-Apr-28 00:26N 51°49' E 004°02'0 0.0
2015-Apr-27 23:32N 51°49' E 004°02'0 0.0
2015-Apr-27 22:32N 51°49' E 004°02'0 0.0
2015-Apr-27 21:32N 51°49' E 004°02'0 0.0
2015-Apr-27 20:32N 51°49' E 004°02'0 0.0
2015-Apr-27 19:32N 51°49' E 004°02'0 0.0
2015-Apr-27 18:32N 51°49' E 004°02'0 0.0
2015-Apr-27 17:32N 51°49' E 004°02'0 0.0
2015-Apr-27 16:32N 51°49' E 004°02'0 0.0
2015-Apr-27 15:32N 51°49' E 004°02'0 0.0
2015-Apr-27 14:32N 51°49' E 004°02'0 0.0
2015-Apr-27 13:32N 51°49' E 004°02'0 0.0
2015-Apr-27 12:32N 51°49' E 004°02'0 0.0
2015-Apr-27 11:29N 51°49' E 004°02'0 0.0
2015-Apr-27 10:29N 51°49' E 004°02'0 0.0
2015-Apr-27 09:32N 51°49' E 004°02'0 0.0
2015-Apr-27 08:28N 51°49' E 004°02'0 0.0
2015-Apr-27 07:31N 51°49' E 004°02'0 0.0
2015-Apr-27 06:31N 51°49' E 004°02'0 0.0
2015-Apr-27 05:31N 51°49' E 004°02'0 0.0
2015-Apr-27 04:31N 51°49' E 004°02'0 0.0
2015-Apr-27 03:31N 51°49' E 004°02'0 0.0
2015-Apr-27 02:31N 51°49' E 004°02'0 0.0
2015-Apr-27 01:31N 51°49' E 004°02'0 0.0
2015-Apr-27 00:31N 51°49' E 004°02'0 0.0
2015-Apr-26 23:31N 51°49' E 004°02'0 0.0
2015-Apr-26 22:31N 51°49' E 004°02'0 0.0
2015-Apr-26 21:31N 51°49' E 004°02'0 0.0
2015-Apr-26 20:31N 51°49' E 004°02'0 0.0
2015-Apr-26 19:31N 51°49' E 004°02'0 0.0
2015-Apr-26 18:31N 51°49' E 004°02'0 0.0
2015-Apr-26 17:31N 51°49' E 004°02'0 0.0
2015-Apr-26 16:31N 51°49' E 004°02'0 0.0
2015-Apr-26 15:31N 51°49' E 004°02'0 0.0
2015-Apr-26 14:31N 51°49' E 004°02'0 0.0
2015-Apr-26 13:31N 51°49' E 004°02'0 0.0
2015-Apr-26 12:31N 51°49' E 004°02'0 0.0
2015-Apr-26 11:31N 51°49' E 004°02'0 0.0
2015-Apr-26 10:31N 51°49' E 004°02'0 0.0
2015-Apr-26 09:31N 51°49' E 004°02'0 0.0
2015-Apr-26 08:31N 51°49' E 004°02'0 0.0
2015-Apr-26 07:31N 51°49' E 004°02'0 0.0
2015-Apr-26 06:31N 51°49' E 004°02'0 0.0
2015-Apr-26 05:31N 51°49' E 004°02'0 0.0
2015-Apr-26 04:31N 51°49' E 004°02'0 0.0
2015-Apr-26 03:28N 51°49' E 004°02'0 0.0
2015-Apr-26 02:31N 51°49' E 004°02'0 0.0
2015-Apr-26 01:31N 51°49' E 004°02'0 0.0
2015-Apr-26 00:31N 51°49' E 004°02'0 0.0
2015-Apr-25 23:28N 51°49' E 004°02'0 0.0
2015-Apr-25 22:28N 51°49' E 004°02'0 0.0
2015-Apr-25 21:31N 51°49' E 004°02'0 0.0
2015-Apr-25 20:34N 51°49' E 004°02'0 0.0
2015-Apr-25 19:34N 51°49' E 004°02'0 0.0
2015-Apr-25 18:33N 51°49' E 004°02'0 0.0
2015-Apr-25 17:30N 51°49' E 004°02'0 0.0
2015-Apr-25 16:33N 51°49' E 004°02'0 0.0
2015-Apr-25 15:33N 51°49' E 004°02'0 0.0
2015-Apr-25 14:33N 51°49' E 004°02'0 0.0
2015-Apr-25 13:30N 51°49' E 004°02'0 0.0
2015-Apr-25 12:33N 51°49' E 004°02'0 0.0
2015-Apr-25 11:33N 51°49' E 004°02'0 0.0
2015-Apr-25 10:33N 51°49' E 004°02'0 0.0
2015-Apr-25 09:30N 51°49' E 004°02'0 0.0
2015-Apr-25 08:33N 51°49' E 004°02'0 0.0
2015-Apr-25 07:30N 51°49' E 004°02'0 0.0
2015-Apr-25 06:21N 51°49' E 004°02'0 0.0
2015-Apr-25 05:33N 51°49' E 004°02'0 0.0
2015-Apr-25 04:33N 51°49' E 004°02'0 0.0
2015-Apr-25 03:30N 51°49' E 004°02'0 0.0
2015-Apr-25 02:33N 51°49' E 004°02'0 0.0
2015-Apr-25 01:33N 51°49' E 004°02'0 0.0
2015-Apr-25 00:33N 51°49' E 004°02'0 0.0
2015-Apr-24 23:27N 51°49' E 004°02'0 0.0
2015-Apr-24 22:33N 51°49' E 004°02'0 0.0
2015-Apr-24 21:33N 51°49' E 004°02'0 0.0
2015-Apr-24 20:33N 51°49' E 004°02'0 0.0
2015-Apr-24 19:33N 51°49' E 004°02'0 0.0
2015-Apr-24 18:33N 51°49' E 004°02'0 0.0
2015-Apr-24 17:33N 51°49' E 004°02'0 0.0
2015-Apr-24 16:33N 51°49' E 004°02'0 0.0
2015-Apr-24 15:33N 51°49' E 004°02'0 0.0
2015-Apr-24 14:33N 51°49' E 004°02'0 0.0
2015-Apr-24 13:33N 51°49' E 004°02'0 0.0
2015-Apr-24 12:33N 51°49' E 004°02'0 0.0
2015-Apr-24 11:33N 51°49' E 004°02'0 0.0
2015-Apr-24 10:33N 51°49' E 004°02'0 0.0
2015-Apr-24 09:33N 51°49' E 004°02'0 0.0
2015-Apr-24 08:33N 51°49' E 004°02'0 0.0
2015-Apr-24 07:30N 51°49' E 004°02'0 0.0
2015-Apr-24 06:32N 51°49' E 004°02'0 0.0
2015-Apr-24 05:32N 51°49' E 004°02'0 0.0
2015-Apr-24 04:32N 51°49' E 004°02'0 0.0
2015-Apr-24 03:33N 51°49' E 004°02'0 0.0
2015-Apr-24 02:29N 51°49' E 004°02'0 0.0
2015-Apr-24 01:26N 51°49' E 004°02'0 0.0
2015-Apr-24 00:32N 51°49' E 004°02'0 0.0
2015-Apr-23 23:29N 51°49' E 004°02'0 0.0
2015-Apr-23 22:32N 51°49' E 004°02'0 0.0
2015-Apr-23 21:32N 51°49' E 004°02'0 0.0
2015-Apr-23 20:32N 51°49' E 004°02'0 0.0
2015-Apr-23 19:32N 51°49' E 004°02'0 0.0
2015-Apr-23 18:29N 51°49' E 004°02'0 0.2
2015-Apr-23 17:33N 51°49' E 004°02'8 8.2
2015-Apr-23 16:33N 51°51' E 003°49'1211.7
2015-Apr-23 15:33N 51°48' E 003°31'5 5.3
2015-Apr-23 14:33N 51°45' E 003°24'6 6.0
2015-Apr-23 13:31N 51°48' E 003°32'6 6.1
2015-Apr-23 12:32N 51°51' E 003°41'1010.0
2015-Apr-23 11:33N 51°57' E 003°54'1211.9
2015-Apr-23 10:33N 52°04' E 004°09'5 4.8
2015-Apr-23 09:32N 52°06' E 004°16'0 0.0
2015-Apr-23 08:32N 52°06' E 004°16'0 0.0
2015-Apr-23 07:32N 52°06' E 004°16'0 0.0
2015-Apr-23 06:33N 52°06' E 004°16'  
Track history (hours):
 
Tides and Currents Weather Stations Pressure Air Temp Water Temp Dewpoint Dewpoint Depression Visibility Wind Speed Wind Dir Waves Ship Positions

Oceanographic research ship Tridens (Netherlands)

Detailed information on ship capabilities available from University of Delaware's Ocean Information Center.

Last reported at 2015-May-01 01:24 UTC. Time now 2015-May-03 16:53 UTC.
Position N 52°06' E 004°16'.

Length 74 m; beam 14 m.

Type: Ship. MMSI: 244033000.

Date/timePositionNaut miles runAvg speedWind from/ knotsBaromVisibWave heightAir tempDewpointWater temp
2015-May-01 01:24N 52°06' E 004°16'7 8.9
2015-May-01 00:34N 52°02' E 004°06'1010.2
2015-Apr-30 23:33N 51°54' E 004°16'3 3.2
2015-Apr-30 22:32N 51°52' E 004°20'0 0.0
2015-Apr-30 21:29N 51°52' E 004°20'0 0.0
2015-Apr-30 20:32N 51°52' E 004°20'0 0.0
2015-Apr-30 19:32N 51°52' E 004°20'0 0.0
2015-Apr-30 18:32N 51°52' E 004°20'0 0.0
2015-Apr-30 17:29N 51°52' E 004°20'0 0.0
2015-Apr-30 16:33N 51°52' E 004°20'6 6.4
2015-Apr-30 15:33N 51°50' E 004°30'8 8.4
2015-Apr-30 14:33N 51°43' E 004°37'9 8.7
2015-Apr-30 13:33N 51°44' E 004°23'1413.6
2015-Apr-30 12:33N 51°49' E 004°03'1 0.5
2015-Apr-30 11:28N 51°49' E 004°02'0 0.2
2015-Apr-30 10:33N 51°49' E 004°03'0 0.0
2015-Apr-30 09:33N 51°49' E 004°03'0 0.0
2015-Apr-30 08:33N 51°49' E 004°03'0 0.0
2015-Apr-30 07:33N 51°49' E 004°03'0 0.0
2015-Apr-30 06:33N 51°49' E 004°03'0 0.0
2015-Apr-30 05:33N 51°49' E 004°03'0 0.0
2015-Apr-30 04:30N 51°49' E 004°03'0 0.0
2015-Apr-30 03:33N 51°49' E 004°03'0 0.0
2015-Apr-30 02:33N 51°49' E 004°03'0 0.0
2015-Apr-30 01:33N 51°49' E 004°03'0 0.0
2015-Apr-30 00:30N 51°49' E 004°03'0 0.0
2015-Apr-29 23:33N 51°49' E 004°03'0 0.0
2015-Apr-29 22:27N 51°49' E 004°03'0 0.0
2015-Apr-29 21:30N 51°49' E 004°03'0 0.0
2015-Apr-29 20:33N 51°49' E 004°03'0 0.0
2015-Apr-29 19:33N 51°49' E 004°03'0 0.0
2015-Apr-29 18:30N 51°49' E 004°03'0 0.0
2015-Apr-29 17:33N 51°49' E 004°03'0 0.0
2015-Apr-29 16:33N 51°49' E 004°03'0 0.0
2015-Apr-29 15:33N 51°49' E 004°03'0 0.0
2015-Apr-29 14:33N 51°49' E 004°03'0 0.0
2015-Apr-29 13:33N 51°49' E 004°03'0 0.0
2015-Apr-29 12:33N 51°49' E 004°03'0 0.0
2015-Apr-29 11:33N 51°49' E 004°03'0 0.0
2015-Apr-29 10:33N 51°49' E 004°03'0 0.0
2015-Apr-29 09:33N 51°49' E 004°03'0 0.0
2015-Apr-29 08:33N 51°49' E 004°03'0 0.0
2015-Apr-29 07:33N 51°49' E 004°03'0 0.0
2015-Apr-29 06:33N 51°49' E 004°03'0 0.0
2015-Apr-29 05:33N 51°49' E 004°03'0 0.0
2015-Apr-29 04:33N 51°49' E 004°03'0 0.0
2015-Apr-29 03:33N 51°49' E 004°03'0 0.0
2015-Apr-29 02:33N 51°49' E 004°03'0 0.0
2015-Apr-29 01:33N 51°49' E 004°03'0 0.0
2015-Apr-29 00:33N 51°49' E 004°03'0 0.0
2015-Apr-28 23:33N 51°49' E 004°03'0 0.0
2015-Apr-28 22:32N 51°49' E 004°03'0 0.0
2015-Apr-28 21:33N 51°49' E 004°03'0 0.0
2015-Apr-28 20:26N 51°49' E 004°03'0 0.0
2015-Apr-28 19:32N 51°49' E 004°03'0 0.0
2015-Apr-28 18:32N 51°49' E 004°03'0 0.0
2015-Apr-28 17:32N 51°49' E 004°03'0 0.0
2015-Apr-28 16:29N 51°49' E 004°03'0 0.0
2015-Apr-28 15:32N 51°49' E 004°03'0 0.0
2015-Apr-28 14:32N 51°49' E 004°03'0 0.0
2015-Apr-28 13:32N 51°49' E 004°03'0 0.2
2015-Apr-28 12:29N 51°49' E 004°02'0 0.0
2015-Apr-28 11:26N 51°49' E 004°02'0 0.0
2015-Apr-28 10:29N 51°49' E 004°02'0 0.0
2015-Apr-28 09:32N 51°49' E 004°02'0 0.0
2015-Apr-28 08:29N 51°49' E 004°02'0 0.0
2015-Apr-28 07:32N 51°49' E 004°02'0 0.0
2015-Apr-28 06:32N 51°49' E 004°02'0 0.0
2015-Apr-28 05:32N 51°49' E 004°02'0 0.0
2015-Apr-28 04:29N 51°49' E 004°02'0 0.0
2015-Apr-28 03:29N 51°49' E 004°02'0 0.0
2015-Apr-28 02:29N 51°49' E 004°02'0 0.0
2015-Apr-28 01:23N 51°49' E 004°02'0 0.0
2015-Apr-28 00:26N 51°49' E 004°02'0 0.0
2015-Apr-27 23:32N 51°49' E 004°02'0 0.0
2015-Apr-27 22:32N 51°49' E 004°02'0 0.0
2015-Apr-27 21:32N 51°49' E 004°02'0 0.0
2015-Apr-27 20:32N 51°49' E 004°02'0 0.0
2015-Apr-27 19:32N 51°49' E 004°02'0 0.0
2015-Apr-27 18:32N 51°49' E 004°02'0 0.0
2015-Apr-27 17:32N 51°49' E 004°02'0 0.0
2015-Apr-27 16:32N 51°49' E 004°02'0 0.0
2015-Apr-27 15:32N 51°49' E 004°02'0 0.0
2015-Apr-27 14:32N 51°49' E 004°02'0 0.0
2015-Apr-27 13:32N 51°49' E 004°02'0 0.0
2015-Apr-27 12:32N 51°49' E 004°02'0 0.0
2015-Apr-27 11:29N 51°49' E 004°02'0 0.0
2015-Apr-27 10:29N 51°49' E 004°02'0 0.0
2015-Apr-27 09:32N 51°49' E 004°02'0 0.0
2015-Apr-27 08:28N 51°49' E 004°02'0 0.0
2015-Apr-27 07:31N 51°49' E 004°02'0 0.0
2015-Apr-27 06:31N 51°49' E 004°02'0 0.0
2015-Apr-27 05:31N 51°49' E 004°02'0 0.0
2015-Apr-27 04:31N 51°49' E 004°02'0 0.0
2015-Apr-27 03:31N 51°49' E 004°02'0 0.0
2015-Apr-27 02:31N 51°49' E 004°02'0 0.0
2015-Apr-27 01:31N 51°49' E 004°02'0 0.0
2015-Apr-27 00:31N 51°49' E 004°02'0 0.0
2015-Apr-26 23:31N 51°49' E 004°02'0 0.0
2015-Apr-26 22:31N 51°49' E 004°02'0 0.0
2015-Apr-26 21:31N 51°49' E 004°02'0 0.0
2015-Apr-26 20:31N 51°49' E 004°02'0 0.0
2015-Apr-26 19:31N 51°49' E 004°02'0 0.0
2015-Apr-26 18:31N 51°49' E 004°02'0 0.0
2015-Apr-26 17:31N 51°49' E 004°02'0 0.0
2015-Apr-26 16:31N 51°49' E 004°02'0 0.0
2015-Apr-26 15:31N 51°49' E 004°02'0 0.0
2015-Apr-26 14:31N 51°49' E 004°02'0 0.0
2015-Apr-26 13:31N 51°49' E 004°02'0 0.0
2015-Apr-26 12:31N 51°49' E 004°02'0 0.0
2015-Apr-26 11:31N 51°49' E 004°02'0 0.0
2015-Apr-26 10:31N 51°49' E 004°02'0 0.0
2015-Apr-26 09:31N 51°49' E 004°02'0 0.0
2015-Apr-26 08:31N 51°49' E 004°02'0 0.0
2015-Apr-26 07:31N 51°49' E 004°02'0 0.0
2015-Apr-26 06:31N 51°49' E 004°02'0 0.0
2015-Apr-26 05:31N 51°49' E 004°02'0 0.0
2015-Apr-26 04:31N 51°49' E 004°02'0 0.0
2015-Apr-26 03:28N 51°49' E 004°02'0 0.0
2015-Apr-26 02:31N 51°49' E 004°02'0 0.0
2015-Apr-26 01:31N 51°49' E 004°02'0 0.0
2015-Apr-26 00:31N 51°49' E 004°02'0 0.0
2015-Apr-25 23:28N 51°49' E 004°02'0 0.0
2015-Apr-25 22:28N 51°49' E 004°02'0 0.0
2015-Apr-25 21:31N 51°49' E 004°02'0 0.0
2015-Apr-25 20:34N 51°49' E 004°02'0 0.0
2015-Apr-25 19:34N 51°49' E 004°02'0 0.0
2015-Apr-25 18:33N 51°49' E 004°02'0 0.0
2015-Apr-25 17:30N 51°49' E 004°02'0 0.0
2015-Apr-25 16:33N 51°49' E 004°02'0 0.0
2015-Apr-25 15:33N 51°49' E 004°02'0 0.0
2015-Apr-25 14:33N 51°49' E 004°02'0 0.0
2015-Apr-25 13:30N 51°49' E 004°02'0 0.0
2015-Apr-25 12:33N 51°49' E 004°02'0 0.0
2015-Apr-25 11:33N 51°49' E 004°02'0 0.0
2015-Apr-25 10:33N 51°49' E 004°02'0 0.0
2015-Apr-25 09:30N 51°49' E 004°02'0 0.0
2015-Apr-25 08:33N 51°49' E 004°02'0 0.0
2015-Apr-25 07:30N 51°49' E 004°02'0 0.0
2015-Apr-25 06:21N 51°49' E 004°02'0 0.0
2015-Apr-25 05:33N 51°49' E 004°02'0 0.0
2015-Apr-25 04:33N 51°49' E 004°02'0 0.0
2015-Apr-25 03:30N 51°49' E 004°02'0 0.0
2015-Apr-25 02:33N 51°49' E 004°02'0 0.0
2015-Apr-25 01:33N 51°49' E 004°02'0 0.0
2015-Apr-25 00:33N 51°49' E 004°02'0 0.0
2015-Apr-24 23:27N 51°49' E 004°02'0 0.0
2015-Apr-24 22:33N 51°49' E 004°02'0 0.0
2015-Apr-24 21:33N 51°49' E 004°02'0 0.0
2015-Apr-24 20:33N 51°49' E 004°02'0 0.0
2015-Apr-24 19:33N 51°49' E 004°02'0 0.0
2015-Apr-24 18:33N 51°49' E 004°02'0 0.0
2015-Apr-24 17:33N 51°49' E 004°02'0 0.0
2015-Apr-24 16:33N 51°49' E 004°02'0 0.0
2015-Apr-24 15:33N 51°49' E 004°02'0 0.0
2015-Apr-24 14:33N 51°49' E 004°02'0 0.0
2015-Apr-24 13:33N 51°49' E 004°02'0 0.0
2015-Apr-24 12:33N 51°49' E 004°02'0 0.0
2015-Apr-24 11:33N 51°49' E 004°02'0 0.0
2015-Apr-24 10:33N 51°49' E 004°02'0 0.0
2015-Apr-24 09:33N 51°49' E 004°02'0 0.0
2015-Apr-24 08:33N 51°49' E 004°02'0 0.0
2015-Apr-24 07:30N 51°49' E 004°02'0 0.0
2015-Apr-24 06:32N 51°49' E 004°02'0 0.0
2015-Apr-24 05:32N 51°49' E 004°02'0 0.0
2015-Apr-24 04:32N 51°49' E 004°02'0 0.0
2015-Apr-24 03:33N 51°49' E 004°02'0 0.0
2015-Apr-24 02:29N 51°49' E 004°02'0 0.0
2015-Apr-24 01:26N 51°49' E 004°02'0 0.0
2015-Apr-24 00:32N 51°49' E 004°02'0 0.0
2015-Apr-23 23:29N 51°49' E 004°02'0 0.0
2015-Apr-23 22:32N 51°49' E 004°02'0 0.0
2015-Apr-23 21:32N 51°49' E 004°02'0 0.0
2015-Apr-23 20:32N 51°49' E 004°02'0 0.0
2015-Apr-23 19:32N 51°49' E 004°02'0 0.0
2015-Apr-23 18:29N 51°49' E 004°02'0 0.2
2015-Apr-23 17:33N 51°49' E 004°02'8 8.2
2015-Apr-23 16:33N 51°51' E 003°49'1211.7
2015-Apr-23 15:33N 51°48' E 003°31'5 5.3
2015-Apr-23 14:33N 51°45' E 003°24'6 6.0
2015-Apr-23 13:31N 51°48' E 003°32'6 6.1
2015-Apr-23 12:32N 51°51' E 003°41'1010.0
2015-Apr-23 11:33N 51°57' E 003°54'1211.9
2015-Apr-23 10:33N 52°04' E 004°09'5 4.8
2015-Apr-23 09:32N 52°06' E 004°16'0 0.0
2015-Apr-23 08:32N 52°06' E 004°16'0 0.0
2015-Apr-23 07:32N 52°06' E 004°16'0 0.0
2015-Apr-23 06:33N 52°06' E 004°16'  

Dump ship's entire track history